Time,TemperatureF,DewpointF,PressureIn,WindDirection,WindDirectionDegrees,WindSpeedMPH,WindSpeedGustMPH,Humidity,HourlyPrecipIn,Conditions,Clouds,dailyrainin,SoftwareType,DateUTC
2013-05-15 00:00:00,63.7,44.2,29.73,North,0,4.9,4.9,49,0.00,,,0.05,meteobridge,2013-05-15 06:00:00,
2013-05-15 00:05:00,64.6,45.5,29.73,NNW,342,0.0,0.0,50,0.00,,,0.05,meteobridge,2013-05-15 06:05:00,
2013-05-15 00:10:00,64.6,44.4,29.73,NNW,346,0.9,4.0,48,0.00,,,0.05,meteobridge,2013-05-15 06:10:00,
2013-05-15 00:15:00,65.1,43.9,29.73,NNW,348,0.9,0.9,46,0.00,,,0.05,meteobridge,2013-05-15 06:15:00,
2013-05-15 00:21:00,65.1,43.9,29.73,NNW,348,0.0,0.0,46,0.00,,,0.05,meteobridge,2013-05-15 06:21:00,
2013-05-15 00:26:00,64.9,43.2,29.73,NNW,348,0.0,0.0,45,0.00,,,0.05,meteobridge,2013-05-15 06:26:00,
2013-05-15 00:31:00,64.6,44.4,29.73,NNW,348,0.0,0.9,48,0.00,,,0.05,meteobridge,2013-05-15 06:31:00,
2013-05-15 00:37:00,63.9,44.2,29.73,NNW,348,0.9,0.9,49,0.00,,,0.05,meteobridge,2013-05-15 06:37:00,
2013-05-15 00:42:00,63.7,46.2,29.73,North,350,0.0,0.0,53,0.00,,,0.05,meteobridge,2013-05-15 06:42:00,
2013-05-15 00:47:00,63.1,46.2,29.73,North,350,0.0,0.0,54,0.00,,,0.05,meteobridge,2013-05-15 06:47:00,
2013-05-15 00:52:00,62.6,46.8,29.73,North,350,0.0,0.0,56,0.00,,,0.05,meteobridge,2013-05-15 06:52:00,
2013-05-15 00:57:00,62.6,46.2,29.73,North,350,0.0,0.9,55,0.00,,,0.05,meteobridge,2013-05-15 06:57:00,
2013-05-15 01:02:00,62.2,47.3,29.73,North,350,0.0,0.0,58,0.00,,,0.05,meteobridge,2013-05-15 07:02:00,
2013-05-15 01:07:00,62.4,46.6,29.73,North,350,0.0,0.0,56,0.00,,,0.05,meteobridge,2013-05-15 07:07:00,
2013-05-15 01:12:00,62.4,47.5,29.73,North,350,0.0,0.0,58,0.00,,,0.05,meteobridge,2013-05-15 07:12:00,
2013-05-15 01:18:00,62.4,50.0,29.73,North,350,0.0,0.0,64,0.00,,,0.05,meteobridge,2013-05-15 07:18:00,
2013-05-15 01:23:00,62.2,46.8,29.72,North,350,0.0,0.0,57,0.00,,,0.05,meteobridge,2013-05-15 07:23:00,
2013-05-15 01:28:00,62.2,48.2,29.72,North,350,0.0,0.0,60,0.00,,,0.05,meteobridge,2013-05-15 07:28:00,
2013-05-15 01:33:00,62.1,48.9,29.72,North,350,0.0,0.0,62,0.00,,,0.05,meteobridge,2013-05-15 07:33:00,
2013-05-15 01:38:00,61.9,49.6,29.72,North,350,0.0,0.0,64,0.00,,,0.05,meteobridge,2013-05-15 07:38:00,
2013-05-15 01:43:00,61.5,49.3,29.72,North,350,0.0,0.0,64,0.00,,,0.05,meteobridge,2013-05-15 07:43:00,
2013-05-15 01:48:00,61.7,48.2,29.72,North,350,0.0,0.9,61,0.00,,,0.05,meteobridge,2013-05-15 07:48:00,
2013-05-15 01:54:00,61.5,48.7,29.72,North,350,0.0,0.0,63,0.00,,,0.05,meteobridge,2013-05-15 07:54:00,
2013-05-15 01:59:00,61.5,48.7,29.71,North,355,0.0,0.9,63,0.00,,,0.05,meteobridge,2013-05-15 07:59:00,
2013-05-15 02:04:00,61.9,47.8,29.71,East,86,0.0,2.0,60,0.00,,,0.05,meteobridge,2013-05-15 08:04:00,
2013-05-15 02:09:00,62.1,48.0,29.71,East,87,0.0,0.9,60,0.00,,,0.05,meteobridge,2013-05-15 08:09:00,
2013-05-15 02:15:00,62.1,48.4,29.71,East,86,0.0,0.0,61,0.00,,,0.05,meteobridge,2013-05-15 08:15:00,
2013-05-15 02:20:00,62.1,48.0,29.71,East,87,0.0,0.0,60,0.00,,,0.05,meteobridge,2013-05-15 08:20:00,
2013-05-15 02:25:00,61.9,47.5,29.71,East,86,0.0,0.0,59,0.00,,,0.05,meteobridge,2013-05-15 08:25:00,
2013-05-15 02:30:00,61.9,46.9,29.71,East,87,0.0,0.0,58,0.00,,,0.05,meteobridge,2013-05-15 08:30:00,
2013-05-15 02:35:00,61.5,48.0,29.71,East,87,0.9,0.9,61,0.00,,,0.05,meteobridge,2013-05-15 08:35:00,
2013-05-15 02:41:00,61.3,46.9,29.71,East,87,0.0,0.9,59,0.00,,,0.05,meteobridge,2013-05-15 08:41:00,
2013-05-15 02:46:00,61.7,46.4,29.70,East,87,0.0,0.0,57,0.00,,,0.05,meteobridge,2013-05-15 08:46:00,
2013-05-15 02:52:00,61.7,46.4,29.70,East,87,0.0,0.0,57,0.00,,,0.05,meteobridge,2013-05-15 08:52:00,
2013-05-15 02:57:00,61.5,46.6,29.70,East,87,0.0,0.9,58,0.00,,,0.05,meteobridge,2013-05-15 08:57:00,
2013-05-15 03:02:00,61.3,46.9,29.70,East,101,0.0,0.9,59,0.00,,,0.05,meteobridge,2013-05-15 09:02:00,
2013-05-15 03:07:00,61.2,47.1,29.70,East,101,0.0,0.0,60,0.00,,,0.05,meteobridge,2013-05-15 09:07:00,
2013-05-15 03:12:00,61.0,46.6,29.70,East,101,0.0,0.0,59,0.00,,,0.05,meteobridge,2013-05-15 09:12:00,
2013-05-15 03:17:00,61.2,45.9,29.70,East,101,0.0,0.9,57,0.00,,,0.05,meteobridge,2013-05-15 09:17:00,
2013-05-15 03:22:00,61.3,46.0,29.70,East,101,0.0,0.0,57,0.00,,,0.05,meteobridge,2013-05-15 09:22:00,
2013-05-15 03:28:00,61.2,44.8,29.70,East,101,0.0,0.0,55,0.00,,,0.05,meteobridge,2013-05-15 09:28:00,
2013-05-15 03:33:00,61.2,46.8,29.70,East,101,0.0,0.0,59,0.00,,,0.05,meteobridge,2013-05-15 09:33:00,
2013-05-15 03:38:00,61.0,46.6,29.71,East,101,0.0,0.0,59,0.00,,,0.05,meteobridge,2013-05-15 09:38:00,
2013-05-15 03:43:00,60.6,46.2,29.71,East,101,0.0,0.0,59,0.00,,,0.05,meteobridge,2013-05-15 09:43:00,
2013-05-15 03:48:00,61.0,47.5,29.70,East,101,0.0,0.0,61,0.00,,,0.05,meteobridge,2013-05-15 09:48:00,
2013-05-15 03:53:00,60.6,46.6,29.71,NE,51,0.0,2.0,60,0.00,,,0.05,meteobridge,2013-05-15 09:53:00,
2013-05-15 03:58:00,60.8,46.4,29.70,NE,51,0.0,0.0,59,0.00,,,0.05,meteobridge,2013-05-15 09:58:00,
2013-05-15 04:03:00,61.2,46.8,29.71,NE,51,0.0,0.0,59,0.00,,,0.05,meteobridge,2013-05-15 10:03:00,
2013-05-15 04:08:00,61.2,47.1,29.70,NE,51,0.0,0.0,60,0.00,,,0.05,meteobridge,2013-05-15 10:08:00,
2013-05-15 04:13:00,61.2,46.2,29.70,NE,51,0.0,0.0,58,0.00,,,0.05,meteobridge,2013-05-15 10:13:00,
2013-05-15 04:18:00,61.0,46.6,29.70,NE,51,0.0,0.0,59,0.00,,,0.05,meteobridge,2013-05-15 10:18:00,
2013-05-15 04:23:00,60.8,46.4,29.71,NE,51,0.0,0.0,59,0.00,,,0.05,meteobridge,2013-05-15 10:23:00,
2013-05-15 04:28:00,60.6,45.7,29.70,NE,56,0.9,2.0,58,0.00,,,0.05,meteobridge,2013-05-15 10:28:00,
2013-05-15 04:33:00,60.4,46.4,29.70,NE,56,0.0,0.0,60,0.00,,,0.05,meteobridge,2013-05-15 10:33:00,
2013-05-15 04:39:00,60.3,46.8,29.70,NE,56,0.0,0.9,61,0.00,,,0.05,meteobridge,2013-05-15 10:39:00,
2013-05-15 04:44:00,60.3,46.8,29.70,NE,56,0.0,0.0,61,0.00,,,0.05,meteobridge,2013-05-15 10:44:00,
2013-05-15 04:49:00,60.6,46.6,29.70,NE,56,0.0,0.0,60,0.00,,,0.05,meteobridge,2013-05-15 10:49:00,
2013-05-15 04:54:00,60.6,46.6,29.70,NE,56,0.0,0.0,60,0.00,,,0.05,meteobridge,2013-05-15 10:54:00,
2013-05-15 04:59:00,60.4,46.4,29.70,NE,56,0.0,0.0,60,0.00,,,0.05,meteobridge,2013-05-15 10:59:00,
2013-05-15 05:04:00,60.3,47.1,29.70,NE,56,0.0,0.0,62,0.00,,,0.05,meteobridge,2013-05-15 11:04:00,
2013-05-15 05:09:00,60.3,48.0,29.70,NE,56,0.0,0.0,64,0.00,,,0.05,meteobridge,2013-05-15 11:09:00,
2013-05-15 05:15:00,60.4,46.9,29.70,NE,56,0.0,0.0,61,0.00,,,0.05,meteobridge,2013-05-15 11:15:00,
2013-05-15 05:20:00,60.8,46.8,29.70,ENE,70,0.9,0.9,60,0.00,,,0.05,meteobridge,2013-05-15 11:20:00,
2013-05-15 05:25:00,61.2,46.8,29.70,East,90,0.9,2.0,59,0.00,,,0.05,meteobridge,2013-05-15 11:25:00,
2013-05-15 05:30:00,61.3,46.0,29.69,East,89,2.9,4.9,57,0.00,,,0.05,meteobridge,2013-05-15 11:30:00,
2013-05-15 05:35:00,61.5,45.1,29.69,ESE,107,0.9,2.9,55,0.00,,,0.05,meteobridge,2013-05-15 11:35:00,
2013-05-15 05:40:00,61.9,45.1,29.69,ESE,117,0.9,2.9,54,0.00,,,0.05,meteobridge,2013-05-15 11:40:00,
2013-05-15 05:46:00,61.9,45.5,29.69,ESE,117,0.9,2.0,55,0.00,,,0.05,meteobridge,2013-05-15 11:46:00,
2013-05-15 05:51:00,61.7,46.4,29.69,ESE,117,0.0,0.9,57,0.00,,,0.05,meteobridge,2013-05-15 11:51:00,
2013-05-15 05:56:00,61.5,45.7,29.70,SSE,160,0.0,0.9,56,0.00,,,0.05,meteobridge,2013-05-15 11:56:00,
2013-05-15 06:01:00,61.5,45.7,29.69,SE,129,2.9,2.9,56,0.00,,,0.05,meteobridge,2013-05-15 12:01:00,
2013-05-15 06:06:00,61.5,45.7,29.70,SSE,147,2.0,2.0,56,0.00,,,0.05,meteobridge,2013-05-15 12:06:00,
2013-05-15 06:11:00,61.5,45.1,29.69,SSE,147,2.0,2.0,55,0.00,,,0.05,meteobridge,2013-05-15 12:11:00,
2013-05-15 06:16:00,61.7,45.3,29.70,SSE,149,0.9,2.0,55,0.00,,,0.05,meteobridge,2013-05-15 12:16:00,
2013-05-15 06:22:00,61.9,44.6,29.70,SE,145,0.9,2.9,53,0.00,,,0.05,meteobridge,2013-05-15 12:22:00,
2013-05-15 06:27:00,61.9,44.1,29.70,SSE,149,2.0,2.0,52,0.00,,,0.05,meteobridge,2013-05-15 12:27:00,
2013-05-15 06:32:00,61.9,43.0,29.70,SSE,168,2.0,4.0,50,0.00,,,0.05,meteobridge,2013-05-15 12:32:00,
2013-05-15 06:37:00,62.1,42.6,29.71,SSE,161,0.0,0.9,49,0.00,,,0.05,meteobridge,2013-05-15 12:37:00,
2013-05-15 06:42:00,61.9,42.4,29.71,SSE,161,0.9,0.9,49,0.00,,,0.05,meteobridge,2013-05-15 12:42:00,
2013-05-15 06:47:00,61.9,43.0,29.72,SSW,207,0.0,0.0,50,0.00,,,0.05,meteobridge,2013-05-15 12:47:00,
2013-05-15 06:52:00,61.5,43.2,29.72,SSW,207,0.0,0.0,51,0.00,,,0.05,meteobridge,2013-05-15 12:52:00,
2013-05-15 06:57:00,61.3,43.5,29.72,SSW,207,0.0,0.0,52,0.00,,,0.05,meteobridge,2013-05-15 12:57:00,
2013-05-15 07:02:00,61.5,43.2,29.72,SSW,207,0.0,0.0,51,0.00,,,0.05,meteobridge,2013-05-15 13:02:00,
2013-05-15 07:08:00,61.3,43.5,29.72,SSW,207,0.0,0.0,52,0.00,,,0.05,meteobridge,2013-05-15 13:08:00,
2013-05-15 07:13:00,61.3,45.5,29.72,SSW,207,0.0,0.9,56,0.00,,,0.05,meteobridge,2013-05-15 13:13:00,
2013-05-15 07:18:00,61.0,45.1,29.71,SSW,207,0.0,0.9,56,0.00,,,0.05,meteobridge,2013-05-15 13:18:00,
2013-05-15 07:23:00,61.2,45.3,29.72,SSW,207,0.9,0.9,56,0.00,,,0.05,meteobridge,2013-05-15 13:23:00,
2013-05-15 07:28:00,61.2,45.3,29.71,SE,138,0.0,0.9,56,0.00,,,0.05,meteobridge,2013-05-15 13:28:00,
2013-05-15 07:33:00,61.5,44.8,29.72,SE,138,0.0,0.0,54,0.00,,,0.05,meteobridge,2013-05-15 13:33:00,
2013-05-15 07:39:00,61.9,45.5,29.71,SE,138,0.9,0.9,55,0.00,,,0.05,meteobridge,2013-05-15 13:39:00,
2013-05-15 07:44:00,61.9,45.1,29.71,SE,133,0.0,2.0,54,0.00,,,0.05,meteobridge,2013-05-15 13:44:00,
2013-05-15 07:49:00,62.2,44.4,29.71,SE,128,0.0,0.9,52,0.00,,,0.05,meteobridge,2013-05-15 13:49:00,
2013-05-15 07:54:00,62.8,45.0,29.71,East,94,2.0,2.0,52,0.00,,,0.05,meteobridge,2013-05-15 13:54:00,
2013-05-15 08:00:00,63.1,45.1,29.71,SSE,153,2.9,4.0,52,0.00,,,0.05,meteobridge,2013-05-15 14:00:00,
2013-05-15 08:05:00,63.3,44.4,29.71,East,88,0.0,4.0,50,0.00,,,0.05,meteobridge,2013-05-15 14:05:00,
2013-05-15 08:10:00,63.3,45.0,29.71,ESE,114,0.0,2.0,51,0.00,,,0.05,meteobridge,2013-05-15 14:10:00,
2013-05-15 08:15:00,63.5,44.6,29.71,ESE,114,0.9,0.9,50,0.00,,,0.05,meteobridge,2013-05-15 14:15:00,
2013-05-15 08:20:00,63.5,46.0,29.71,ESE,114,0.0,0.9,53,0.00,,,0.05,meteobridge,2013-05-15 14:20:00,
2013-05-15 08:26:00,63.7,45.7,29.71,ESE,114,0.0,0.0,52,0.00,,,0.05,meteobridge,2013-05-15 14:26:00,
2013-05-15 08:31:00,63.5,46.6,29.71,ESE,114,0.0,0.0,54,0.00,,,0.05,meteobridge,2013-05-15 14:31:00,
2013-05-15 08:36:00,63.9,46.9,29.71,ESE,114,0.0,0.9,54,0.00,,,0.05,meteobridge,2013-05-15 14:36:00,
2013-05-15 08:41:00,64.6,45.5,29.72,ESE,114,0.0,0.0,50,0.00,,,0.05,meteobridge,2013-05-15 14:41:00,
2013-05-15 08:47:00,65.7,45.0,29.72,ESE,114,0.0,0.9,47,0.00,,,0.05,meteobridge,2013-05-15 14:47:00,
2013-05-15 08:52:00,66.0,46.4,29.71,ESE,114,0.0,0.0,49,0.00,,,0.05,meteobridge,2013-05-15 14:52:00,
2013-05-15 08:57:00,66.4,46.0,29.72,ESE,114,0.0,0.0,48,0.00,,,0.05,meteobridge,2013-05-15 14:57:00,
2013-05-15 09:02:00,66.4,47.1,29.72,ESE,114,0.0,0.0,50,0.00,,,0.05,meteobridge,2013-05-15 15:02:00,
2013-05-15 09:07:00,66.6,46.2,29.72,ESE,114,0.0,0.9,48,0.00,,,0.05,meteobridge,2013-05-15 15:07:00,
2013-05-15 09:12:00,66.2,45.9,29.71,ESE,114,0.9,0.9,48,0.00,,,0.05,meteobridge,2013-05-15 15:12:00,
2013-05-15 09:17:00,66.4,46.0,29.72,SW,222,0.9,2.9,48,0.00,,,0.05,meteobridge,2013-05-15 15:17:00,
2013-05-15 09:23:00,66.6,45.7,29.72,SW,215,0.9,2.9,47,0.00,,,0.05,meteobridge,2013-05-15 15:23:00,
2013-05-15 09:28:00,66.9,45.0,29.72,South,175,0.9,2.9,45,0.00,,,0.05,meteobridge,2013-05-15 15:28:00,
2013-05-15 09:33:00,67.3,45.9,29.71,SSE,164,2.0,2.0,46,0.00,,,0.05,meteobridge,2013-05-15 15:33:00,
2013-05-15 09:38:00,67.6,45.0,29.71,SE,129,2.0,4.9,44,0.00,,,0.05,meteobridge,2013-05-15 15:38:00,
2013-05-15 09:44:00,68.4,44.4,29.71,ESE,115,0.9,0.9,42,0.00,,,0.05,meteobridge,2013-05-15 15:44:00,
2013-05-15 09:49:00,68.5,42.6,29.71,ESE,118,0.9,2.0,39,0.00,,,0.05,meteobridge,2013-05-15 15:49:00,
2013-05-15 09:55:00,68.5,43.9,29.71,ESE,118,0.0,0.9,41,0.00,,,0.05,meteobridge,2013-05-15 15:55:00,
2013-05-15 10:00:00,68.7,44.1,29.71,SW,217,0.0,0.9,41,0.00,,,0.05,meteobridge,2013-05-15 16:00:00,
2013-05-15 10:05:00,68.9,42.3,29.71,SE,146,0.9,4.0,38,0.00,,,0.05,meteobridge,2013-05-15 16:05:00,
2013-05-15 10:10:00,69.3,41.9,29.71,South,178,0.9,4.9,37,0.00,,,0.05,meteobridge,2013-05-15 16:10:00,
2013-05-15 10:15:00,69.6,42.3,29.71,SSE,156,2.9,4.0,37,0.00,,,0.05,meteobridge,2013-05-15 16:15:00,
2013-05-15 10:20:00,70.0,43.2,29.70,SSW,209,2.9,4.0,38,0.00,,,0.05,meteobridge,2013-05-15 16:20:00,
2013-05-15 10:25:00,70.3,42.1,29.70,SSE,160,0.0,4.0,36,0.00,,,0.05,meteobridge,2013-05-15 16:25:00,
2013-05-15 10:30:00,71.4,43.2,29.70,SW,217,0.9,2.9,36,0.00,,,0.05,meteobridge,2013-05-15 16:30:00,
2013-05-15 10:35:00,72.0,39.7,29.70,South,184,2.9,6.9,31,0.00,,,0.05,meteobridge,2013-05-15 16:35:00,
2013-05-15 10:40:00,73.2,42.4,29.70,WSW,240,2.0,2.0,33,0.00,,,0.05,meteobridge,2013-05-15 16:40:00,
2013-05-15 10:45:00,73.6,41.0,29.70,WSW,240,2.9,6.0,31,0.00,,,0.05,meteobridge,2013-05-15 16:45:00,
2013-05-15 10:50:00,73.9,40.5,29.70,SSW,209,2.9,4.0,30,0.00,,,0.05,meteobridge,2013-05-15 16:50:00,
2013-05-15 10:55:00,74.1,40.6,29.70,SW,227,6.0,6.9,30,0.00,,,0.05,meteobridge,2013-05-15 16:55:00,
2013-05-15 11:00:00,74.5,41.0,29.70,SW,219,2.0,4.9,30,0.00,,,0.05,meteobridge,2013-05-15 17:00:00,
2013-05-15 11:05:00,74.7,40.3,29.70,South,174,4.0,6.0,29,0.00,,,0.05,meteobridge,2013-05-15 17:05:00,
2013-05-15 11:10:00,75.2,40.8,29.70,NW,315,0.9,2.9,29,0.00,,,0.05,meteobridge,2013-05-15 17:10:00,
2013-05-15 11:15:00,74.8,38.7,29.70,SE,142,0.9,4.9,27,0.00,,,0.05,meteobridge,2013-05-15 17:15:00,
2013-05-15 11:20:00,75.4,41.0,29.69,SSW,202,0.0,2.9,29,0.00,,,0.05,meteobridge,2013-05-15 17:20:00,
2013-05-15 11:26:00,75.9,41.4,29.69,WSW,248,4.0,4.0,29,0.00,,,0.05,meteobridge,2013-05-15 17:26:00,
2013-05-15 11:31:00,75.6,40.1,29.69,SSE,165,4.9,6.9,28,0.00,,,0.05,meteobridge,2013-05-15 17:31:00,
2013-05-15 11:36:00,75.6,41.0,29.69,WNW,300,0.0,2.0,29,0.00,,,0.05,meteobridge,2013-05-15 17:36:00,
2013-05-15 11:41:00,76.3,39.9,29.69,SSW,204,0.9,2.9,27,0.00,,,0.05,meteobridge,2013-05-15 17:41:00,
2013-05-15 11:46:00,76.1,38.7,29.69,SW,224,0.9,2.0,26,0.00,,,0.05,meteobridge,2013-05-15 17:46:00,
2013-05-15 11:51:00,77.0,39.6,29.68,WNW,298,0.0,2.0,26,0.00,,,0.05,meteobridge,2013-05-15 17:51:00,
2013-05-15 11:56:00,77.9,38.1,29.68,SW,217,0.9,6.0,24,0.00,,,0.05,meteobridge,2013-05-15 17:56:00,
2013-05-15 12:01:00,78.4,38.7,29.68,SSE,148,2.0,4.0,24,0.00,,,0.05,meteobridge,2013-05-15 18:01:00,
2013-05-15 12:06:00,77.7,37.0,29.67,West,266,0.9,2.9,23,0.00,,,0.05,meteobridge,2013-05-15 18:06:00,
2013-05-15 12:12:00,79.0,37.9,29.67,SE,126,0.9,4.0,23,0.00,,,0.05,meteobridge,2013-05-15 18:12:00,
2013-05-15 12:17:00,80.2,39.0,29.67,SE,130,0.9,2.0,23,0.00,,,0.05,meteobridge,2013-05-15 18:17:00,
2013-05-15 12:22:00,80.1,36.7,29.67,SW,219,2.9,2.9,21,0.00,,,0.05,meteobridge,2013-05-15 18:22:00,
2013-05-15 12:27:00,81.1,36.3,29.66,NNE,13,2.9,4.0,20,0.00,,,0.05,meteobridge,2013-05-15 18:27:00,
2013-05-15 12:32:00,81.1,38.7,29.66,SW,227,2.0,4.9,22,0.00,,,0.05,meteobridge,2013-05-15 18:32:00,
2013-05-15 12:37:00,81.7,36.7,29.65,SW,214,2.9,4.9,20,0.00,,,0.05,meteobridge,2013-05-15 18:37:00,
2013-05-15 12:42:00,80.8,36.0,29.65,SSW,200,2.0,4.9,20,0.00,,,0.05,meteobridge,2013-05-15 18:42:00,
2013-05-15 12:47:00,81.7,34.0,29.65,NW,314,2.9,6.9,18,0.00,,,0.05,meteobridge,2013-05-15 18:47:00,
2013-05-15 12:52:00,82.4,34.7,29.65,WNW,292,2.9,4.0,18,0.00,,,0.05,meteobridge,2013-05-15 18:52:00,
2013-05-15 12:57:00,80.4,33.1,29.64,North,355,0.0,2.0,18,0.00,,,0.05,meteobridge,2013-05-15 18:57:00,
2013-05-15 13:02:00,81.9,35.6,29.64,North,0,4.0,6.9,19,0.00,,,0.05,meteobridge,2013-05-15 19:02:00,
2013-05-15 13:07:00,81.1,33.6,29.64,NNW,331,2.9,2.9,18,0.00,,,0.05,meteobridge,2013-05-15 19:07:00,
2013-05-15 13:12:00,80.4,33.1,29.64,SE,125,0.0,2.0,18,0.00,,,0.05,meteobridge,2013-05-15 19:12:00,
2013-05-15 13:18:00,81.3,33.8,29.63,NNE,22,0.0,4.0,18,0.00,,,0.05,meteobridge,2013-05-15 19:18:00,
2013-05-15 13:23:00,81.7,34.0,29.63,ENE,71,0.9,4.0,18,0.00,,,0.05,meteobridge,2013-05-15 19:23:00,
2013-05-15 13:28:00,83.8,34.3,29.62,NNE,13,2.9,6.0,17,0.00,,,0.05,meteobridge,2013-05-15 19:28:00,
2013-05-15 13:33:00,84.2,34.7,29.62,North,349,4.0,6.9,17,0.00,,,0.05,meteobridge,2013-05-15 19:33:00,
2013-05-15 13:38:00,84.7,35.1,29.62,NNE,18,0.9,2.0,17,0.00,,,0.05,meteobridge,2013-05-15 19:38:00,
2013-05-15 13:43:00,84.9,32.2,29.61,ENE,71,2.0,4.9,15,0.00,,,0.05,meteobridge,2013-05-15 19:43:00,
2013-05-15 13:48:00,83.1,33.8,29.61,South,170,4.0,4.9,17,0.00,,,0.05,meteobridge,2013-05-15 19:48:00,
2013-05-15 13:53:00,82.0,32.9,29.61,North,355,2.0,2.9,17,0.00,,,0.05,meteobridge,2013-05-15 19:53:00,
2013-05-15 13:58:00,82.8,33.4,29.61,North,9,2.0,4.0,17,0.00,,,0.05,meteobridge,2013-05-15 19:58:00,
2013-05-15 14:03:00,83.7,32.7,29.60,East,84,2.0,6.9,16,0.00,,,0.05,meteobridge,2013-05-15 20:03:00,
2013-05-15 14:08:00,83.8,32.9,29.60,SE,124,4.0,4.0,16,0.00,,,0.05,meteobridge,2013-05-15 20:08:00,
2013-05-15 14:13:00,83.7,32.7,29.60,SW,216,4.0,4.0,16,0.00,,,0.05,meteobridge,2013-05-15 20:13:00,
2013-05-15 14:18:00,84.6,31.8,29.59,SE,140,2.0,8.1,15,0.00,,,0.05,meteobridge,2013-05-15 20:18:00,
2013-05-15 14:23:00,83.7,31.1,29.59,SSW,192,2.9,6.0,15,0.00,,,0.05,meteobridge,2013-05-15 20:23:00,
2013-05-15 14:29:00,83.7,31.1,29.59,ESE,109,4.0,4.0,15,0.00,,,0.05,meteobridge,2013-05-15 20:29:00,
2013-05-15 14:34:00,84.0,31.5,29.58,SSW,199,2.9,4.0,15,0.00,,,0.05,meteobridge,2013-05-15 20:34:00,
2013-05-15 14:39:00,83.8,31.3,29.58,SSE,165,0.0,0.9,15,0.00,,,0.05,meteobridge,2013-05-15 20:39:00,
2013-05-15 14:44:00,86.5,29.8,29.58,SSW,212,2.0,6.0,13,0.00,,,0.05,meteobridge,2013-05-15 20:44:00,
2013-05-15 14:49:00,88.3,31.3,29.58,NW,311,0.0,8.1,13,0.00,,,0.05,meteobridge,2013-05-15 20:49:00,
2013-05-15 14:54:00,87.3,30.4,29.57,WNW,302,4.0,6.9,13,0.00,,,0.05,meteobridge,2013-05-15 20:54:00,
2013-05-15 14:59:00,88.0,28.9,29.57,SE,132,6.0,6.9,12,0.00,,,0.05,meteobridge,2013-05-15 20:59:00,
2013-05-15 15:04:00,87.6,30.7,29.57,WNW,301,2.0,6.9,13,0.00,,,0.05,meteobridge,2013-05-15 21:04:00,
2013-05-15 15:09:00,88.7,27.5,29.57,WNW,282,4.9,8.9,11,0.00,,,0.05,meteobridge,2013-05-15 21:09:00,
2013-05-15 15:14:00,87.3,28.4,29.57,NW,321,2.9,11.0,12,0.00,,,0.05,meteobridge,2013-05-15 21:14:00,
2013-05-15 15:19:00,86.0,27.5,29.56,WNW,286,4.9,4.9,12,0.00,,,0.05,meteobridge,2013-05-15 21:19:00,
2013-05-15 15:25:00,85.6,27.1,29.56,NW,305,0.9,4.9,12,0.00,,,0.05,meteobridge,2013-05-15 21:25:00,
2013-05-15 15:30:00,86.2,27.7,29.56,NNW,348,6.0,8.1,12,0.00,,,0.05,meteobridge,2013-05-15 21:30:00,
2013-05-15 15:35:00,86.7,28.0,29.56,WNW,288,4.0,6.9,12,0.00,,,0.05,meteobridge,2013-05-15 21:35:00,
2013-05-15 15:40:00,88.0,28.9,29.56,WNW,288,2.9,8.1,12,0.00,,,0.05,meteobridge,2013-05-15 21:40:00,
2013-05-15 15:45:00,88.5,27.3,29.56,NW,314,2.9,8.9,11,0.00,,,0.05,meteobridge,2013-05-15 21:45:00,
2013-05-15 15:50:00,88.9,27.5,29.55,West,273,0.9,6.9,11,0.00,,,0.05,meteobridge,2013-05-15 21:50:00,
2013-05-15 15:55:00,89.6,28.2,29.55,NW,325,2.0,13.0,11,0.00,,,0.05,meteobridge,2013-05-15 21:55:00,
2013-05-15 16:00:00,87.8,24.4,29.55,WNW,296,0.9,6.9,10,0.00,,,0.05,meteobridge,2013-05-15 22:00:00,
2013-05-15 16:05:00,87.4,26.4,29.55,NW,318,2.9,4.9,11,0.00,,,0.05,meteobridge,2013-05-15 22:05:00,
2013-05-15 16:10:00,88.0,28.9,29.54,WSW,257,0.9,2.9,12,0.00,,,0.05,meteobridge,2013-05-15 22:10:00,
2013-05-15 16:15:00,88.2,24.8,29.54,NW,311,4.9,6.9,10,0.00,,,0.05,meteobridge,2013-05-15 22:15:00,
2013-05-15 16:20:00,88.3,27.1,29.54,West,267,6.0,8.1,11,0.00,,,0.05,meteobridge,2013-05-15 22:20:00,
2013-05-15 16:25:00,88.0,24.6,29.54,WNW,297,4.0,6.9,10,0.00,,,0.05,meteobridge,2013-05-15 22:25:00,
2013-05-15 16:30:00,87.1,26.2,29.54,WNW,290,6.0,10.1,11,0.00,,,0.05,meteobridge,2013-05-15 22:30:00,
2013-05-15 16:35:00,85.6,30.9,29.55,North,355,14.1,19.0,14,0.00,,,0.05,meteobridge,2013-05-15 22:35:00,
2013-05-15 16:40:00,84.6,31.8,29.55,NNE,24,8.9,15.0,15,0.00,,,0.05,meteobridge,2013-05-15 22:40:00,
2013-05-15 16:45:00,84.0,31.5,29.55,WNW,295,10.1,16.1,15,0.00,,,0.05,meteobridge,2013-05-15 22:45:00,
2013-05-15 16:50:00,83.8,32.9,29.54,North,355,2.9,8.1,16,0.00,,,0.05,meteobridge,2013-05-15 22:50:00,
2013-05-15 16:55:00,83.8,31.3,29.55,NE,39,2.9,8.9,15,0.00,,,0.05,meteobridge,2013-05-15 22:55:00,
2013-05-15 17:00:00,83.8,31.3,29.55,North,9,0.0,0.9,15,0.00,,,0.05,meteobridge,2013-05-15 23:00:00,
2013-05-15 17:05:00,83.8,29.5,29.56,NW,323,2.0,6.9,14,0.00,,,0.05,meteobridge,2013-05-15 23:05:00,
2013-05-15 17:10:00,83.7,29.5,29.56,WSW,237,0.9,6.9,14,0.00,,,0.05,meteobridge,2013-05-15 23:10:00,
2013-05-15 17:16:00,83.5,29.3,29.55,NW,319,2.9,4.9,14,0.00,,,0.05,meteobridge,2013-05-15 23:16:00,
2013-05-15 17:21:00,83.5,30.9,29.57,NNW,334,6.0,14.1,15,0.00,,,0.05,meteobridge,2013-05-15 23:21:00,
2013-05-15 17:26:00,83.1,30.7,29.57,NNW,339,4.0,11.0,15,0.00,,,0.05,meteobridge,2013-05-15 23:26:00,
2013-05-15 17:31:00,82.8,28.8,29.58,NW,326,4.0,15.0,14,0.00,,,0.05,meteobridge,2013-05-15 23:31:00,
2013-05-15 17:36:00,81.7,27.9,29.57,NNE,12,4.9,8.1,14,0.00,,,0.05,meteobridge,2013-05-15 23:36:00,
2013-05-15 17:41:00,81.7,29.5,29.59,SSW,193,4.9,13.0,15,0.00,,,0.05,meteobridge,2013-05-15 23:41:00,
2013-05-15 17:46:00,81.7,27.9,29.56,WNW,300,4.0,6.9,14,0.00,,,0.05,meteobridge,2013-05-15 23:46:00,
2013-05-15 17:51:00,82.0,28.2,29.57,NW,309,2.9,4.9,14,0.00,,,0.05,meteobridge,2013-05-15 23:51:00,
2013-05-15 17:56:00,82.0,28.2,29.58,WNW,302,0.0,4.0,14,0.00,,,0.05,meteobridge,2013-05-15 23:56:00,
2013-05-15 18:01:00,82.0,29.8,29.58,North,5,2.9,6.0,15,0.00,,,0.05,meteobridge,2013-05-16 00:01:00,
2013-05-15 18:06:00,81.9,29.7,29.57,North,355,8.9,8.9,15,0.00,,,0.05,meteobridge,2013-05-16 00:06:00,
2013-05-15 18:11:00,81.5,29.5,29.57,NE,38,2.0,8.1,15,0.00,,,0.05,meteobridge,2013-05-16 00:11:00,
2013-05-15 18:16:00,81.1,29.1,29.55,North,5,2.0,8.1,15,0.00,,,0.05,meteobridge,2013-05-16 00:16:00,
2013-05-15 18:21:00,81.1,29.1,29.56,North,9,4.0,8.9,15,0.00,,,0.05,meteobridge,2013-05-16 00:21:00,
2013-05-15 18:26:00,81.1,29.1,29.56,North,355,2.9,6.0,15,0.00,,,0.05,meteobridge,2013-05-16 00:26:00,
2013-05-15 18:31:00,81.1,27.5,29.56,NNW,343,0.9,0.9,14,0.00,,,0.05,meteobridge,2013-05-16 00:31:00,
2013-05-15 18:36:00,81.1,27.5,29.56,NE,38,2.9,2.9,14,0.00,,,0.05,meteobridge,2013-05-16 00:36:00,
2013-05-15 18:42:00,81.1,29.1,29.55,NNW,336,0.0,0.9,15,0.00,,,0.05,meteobridge,2013-05-16 00:42:00,
2013-05-15 18:47:00,81.1,29.1,29.55,NNE,29,0.0,2.0,15,0.00,,,0.05,meteobridge,2013-05-16 00:47:00,
2013-05-15 18:52:00,81.1,29.1,29.56,NNE,13,2.0,6.0,15,0.00,,,0.05,meteobridge,2013-05-16 00:52:00,
2013-05-15 18:57:00,81.1,29.1,29.55,NE,38,2.0,4.0,15,0.00,,,0.05,meteobridge,2013-05-16 00:57:00,
2013-05-15 19:02:00,81.0,28.9,29.55,NNW,344,2.9,4.0,15,0.00,,,0.05,meteobridge,2013-05-16 01:02:00,
2013-05-15 19:07:00,81.1,29.1,29.55,NNE,12,0.9,4.0,15,0.00,,,0.05,meteobridge,2013-05-16 01:07:00,
2013-05-15 19:12:00,81.0,28.9,29.56,North,355,2.0,4.9,15,0.00,,,0.05,meteobridge,2013-05-16 01:12:00,
2013-05-15 19:17:00,81.0,28.9,29.56,NE,50,2.9,2.9,15,0.00,,,0.05,meteobridge,2013-05-16 01:17:00,
2013-05-15 19:22:00,81.1,29.1,29.56,NE,35,0.9,4.0,15,0.00,,,0.05,meteobridge,2013-05-16 01:22:00,
2013-05-15 19:28:00,81.0,30.6,29.56,North,355,0.0,0.0,16,0.00,,,0.05,meteobridge,2013-05-16 01:28:00,
2013-05-15 19:33:00,80.8,31.8,29.55,NE,38,0.0,0.9,17,0.00,,,0.05,meteobridge,2013-05-16 01:33:00,
2013-05-15 19:38:00,80.2,31.5,29.56,NE,38,0.0,0.9,17,0.00,,,0.05,meteobridge,2013-05-16 01:38:00,
2013-05-15 19:43:00,79.9,32.5,29.56,NE,38,0.0,0.0,18,0.00,,,0.05,meteobridge,2013-05-16 01:43:00,
2013-05-15 19:48:00,79.2,33.4,29.57,NE,38,0.0,0.0,19,0.00,,,0.05,meteobridge,2013-05-16 01:48:00,
2013-05-15 19:53:00,78.4,35.2,29.57,NE,38,0.0,0.9,21,0.00,,,0.05,meteobridge,2013-05-16 01:53:00,
2013-05-15 19:59:00,78.1,34.9,29.57,NE,38,0.0,0.0,21,0.00,,,0.05,meteobridge,2013-05-16 01:59:00,
2013-05-15 20:04:00,77.5,35.8,29.57,NE,38,0.0,0.0,22,0.00,,,0.05,meteobridge,2013-05-16 02:04:00,
2013-05-15 20:09:00,77.2,35.4,29.57,NE,38,0.0,0.0,22,0.00,,,0.05,meteobridge,2013-05-16 02:09:00,
2013-05-15 20:15:00,76.5,34.9,29.57,NE,38,0.9,0.9,22,0.00,,,0.05,meteobridge,2013-05-16 02:15:00,
2013-05-15 20:20:00,75.9,34.3,29.57,ENE,71,0.0,0.0,22,0.00,,,0.05,meteobridge,2013-05-16 02:20:00,
2013-05-15 20:25:00,76.5,33.6,29.57,ESE,103,0.9,2.0,21,0.00,,,0.05,meteobridge,2013-05-16 02:25:00,
2013-05-15 20:30:00,76.5,34.9,29.58,ESE,103,0.0,0.9,22,0.00,,,0.05,meteobridge,2013-05-16 02:30:00,
2013-05-15 20:35:00,75.7,34.2,29.59,ESE,103,0.0,0.9,22,0.00,,,0.05,meteobridge,2013-05-16 02:35:00,
2013-05-15 20:40:00,75.7,35.2,29.59,ESE,103,0.0,0.0,23,0.00,,,0.05,meteobridge,2013-05-16 02:40:00,
2013-05-15 20:46:00,75.4,36.1,29.59,ESE,103,0.0,0.9,24,0.00,,,0.05,meteobridge,2013-05-16 02:46:00,
2013-05-15 20:51:00,75.2,34.9,29.59,SSE,151,0.0,2.0,23,0.00,,,0.05,meteobridge,2013-05-16 02:51:00,
2013-05-15 20:56:00,75.4,35.1,29.59,ESE,115,0.9,0.9,23,0.00,,,0.05,meteobridge,2013-05-16 02:56:00,
2013-05-15 21:01:00,75.7,34.2,29.60,ENE,67,0.0,2.9,22,0.00,,,0.05,meteobridge,2013-05-16 03:01:00,
2013-05-15 21:06:00,75.9,35.4,29.60,ENE,71,0.0,0.9,23,0.00,,,0.05,meteobridge,2013-05-16 03:06:00,
2013-05-15 21:11:00,75.6,34.0,29.61,ENE,71,0.0,0.0,22,0.00,,,0.05,meteobridge,2013-05-16 03:11:00,
2013-05-15 21:17:00,75.0,36.9,29.61,ENE,71,0.0,0.0,25,0.00,,,0.05,meteobridge,2013-05-16 03:17:00,
2013-05-15 21:22:00,74.1,37.0,29.61,ENE,71,0.0,0.9,26,0.00,,,0.05,meteobridge,2013-05-16 03:22:00,
2013-05-15 21:27:00,73.2,36.3,29.62,ENE,71,0.0,0.9,26,0.00,,,0.05,meteobridge,2013-05-16 03:27:00,
2013-05-15 21:32:00,73.0,37.0,29.62,ENE,71,0.0,0.9,27,0.00,,,0.05,meteobridge,2013-05-16 03:32:00,
2013-05-15 21:38:00,73.0,37.0,29.63,ENE,71,0.0,0.0,27,0.00,,,0.05,meteobridge,2013-05-16 03:38:00,
2013-05-15 21:43:00,72.3,37.4,29.63,North,11,0.0,2.0,28,0.00,,,0.05,meteobridge,2013-05-16 03:43:00,
2013-05-15 21:48:00,71.8,37.8,29.64,NNW,328,0.0,0.9,29,0.00,,,0.05,meteobridge,2013-05-16 03:48:00,
2013-05-15 21:53:00,71.1,38.1,29.64,NNW,328,0.0,0.0,30,0.00,,,0.05,meteobridge,2013-05-16 03:53:00,
2013-05-15 21:58:00,70.5,38.5,29.65,WSW,240,2.9,2.9,31,0.00,,,0.05,meteobridge,2013-05-16 03:58:00,
2013-05-15 22:01:00,70.5,36.7,29.65,NW,325,0.9,2.0,29,0.00,,,0.05,meteobridge,2013-05-16 04:01:00,
2013-05-15 22:06:00,72.0,27.5,29.65,WNW,298,4.9,8.9,19,0.00,,,0.05,meteobridge,2013-05-16 04:06:00,
2013-05-15 22:11:00,74.3,25.2,29.65,WNW,282,4.9,6.9,16,0.00,,,0.05,meteobridge,2013-05-16 04:11:00,
2013-05-15 22:16:00,75.2,24.4,29.66,WNW,289,0.9,2.9,15,0.00,,,0.05,meteobridge,2013-05-16 04:16:00,
2013-05-15 22:21:00,75.4,24.4,29.66,NNW,329,0.9,4.9,15,0.00,,,0.05,meteobridge,2013-05-16 04:21:00,
2013-05-15 22:26:00,75.0,24.3,29.66,WNW,296,0.9,4.0,15,0.00,,,0.05,meteobridge,2013-05-16 04:26:00,
2013-05-15 22:31:00,74.8,24.1,29.66,WNW,290,0.0,4.0,15,0.00,,,0.05,meteobridge,2013-05-16 04:31:00,
2013-05-15 22:36:00,74.7,23.9,29.66,NNW,342,0.0,2.0,15,0.00,,,0.05,meteobridge,2013-05-16 04:36:00,
2013-05-15 22:41:00,74.1,21.9,29.66,NNW,327,0.9,2.9,14,0.00,,,0.05,meteobridge,2013-05-16 04:41:00,
2013-05-15 22:46:00,74.1,21.9,29.66,NW,317,0.0,2.0,14,0.00,,,0.05,meteobridge,2013-05-16 04:46:00,
2013-05-15 22:52:00,73.9,21.7,29.66,NW,317,0.9,0.9,14,0.00,,,0.05,meteobridge,2013-05-16 04:52:00,
2013-05-15 22:57:00,73.4,21.4,29.66,NNW,333,0.9,2.0,14,0.00,,,0.05,meteobridge,2013-05-16 04:57:00,
2013-05-15 23:02:00,72.7,20.7,29.66,NNW,327,0.0,0.9,14,0.00,,,0.05,meteobridge,2013-05-16 05:02:00,
2013-05-15 23:07:00,72.1,20.3,29.67,NNW,327,0.0,0.9,14,0.00,,,0.05,meteobridge,2013-05-16 05:07:00,
2013-05-15 23:12:00,71.8,21.6,29.67,NNW,327,0.0,0.9,15,0.00,,,0.05,meteobridge,2013-05-16 05:12:00,
2013-05-15 23:18:00,71.2,21.2,29.67,NNW,327,0.0,0.9,15,0.00,,,0.05,meteobridge,2013-05-16 05:18:00,
2013-05-15 23:23:00,71.1,22.6,29.67,NNW,334,0.0,0.9,16,0.00,,,0.05,meteobridge,2013-05-16 05:23:00,
2013-05-15 23:28:00,70.9,22.5,29.67,North,5,0.0,2.9,16,0.00,,,0.05,meteobridge,2013-05-16 05:28:00,
2013-05-15 23:33:00,70.5,22.1,29.67,North,5,0.0,0.9,16,0.00,,,0.05,meteobridge,2013-05-16 05:33:00,
2013-05-15 23:38:00,69.3,25.2,29.67,North,5,0.0,0.0,19,0.00,,,0.05,meteobridge,2013-05-16 05:38:00,
2013-05-15 23:43:00,68.4,24.4,29.67,North,5,0.0,2.0,19,0.00,,,0.05,meteobridge,2013-05-16 05:43:00,
2013-05-15 23:49:00,68.4,24.4,29.67,North,5,0.0,0.9,19,0.00,,,0.05,meteobridge,2013-05-16 05:49:00,
2013-05-15 23:54:00,68.4,24.4,29.67,North,5,0.0,0.0,19,0.00,,,0.05,meteobridge,2013-05-16 05:54:00,
2013-05-15 23:59:00,67.8,24.1,29.67,North,5,0.0,0.0,19,0.00,,,0.05,meteobridge,2013-05-16 05:59:00,